RH
69 75 78 77 74 71 59 66 61 57 64 64 62 62 62 63 56 69 62 50 64 72 78 79 79 79 76 73 70 73 82 81 77 78 75 71 67 61 54 49 54 56 54 49 40 39 42 45 50
73 75 79 75 71 59 60 58 58 56 61 63 65 65 61 67 63 64 63 53 63 70 72 72 72 71 73 71 71 72 76 80 71 67 68 66 64 65 64 56 50 44 43 46 46 44 45 47 62
72 78 79 74 67 60 65 57 56 55 53 57 59 62 63 64 61 60 54 50 62 67 67 68 68 66 69 70 74 74 76 76 73 72 65 63 58 57 55 48 40 38 36 37 39 38 41 42 47
73 75 76 72 65 53 54 59 58 57 58 49 43 52 56 58 54 56 55 47 61 62 65 67 65 66 66 67 69 73 73 73 72 74 64 56 51 48 45 41 39 35 32 32 35 35 38 39 41
75 75 81 78 61 58 56 60 60 57 63 49 46 53 57 58 55 61 59 46 54 62 62 68 67 64 65 66 64 64 66 68 68 67 65 58 55 44 41 41 38 35 32 31 32 37 42 41 44
82 84 79 77 67 65 64 66 77 63 52 48 50 56 64 61 58 67 61 56 47 57 62 65 63 61 67 71 66 62 63 65 72 80 76 66 56 44 41 41 38 33 30 29 29 36 40 42 43
88 83 78 64 63 68 72 69 69 61 48 49 49 58 75 70 68 72 65 60 48 49 54 57 55 58 67 75 73 61 57 61 66 68 65 64 56 47 42 38 35 32 32 30 29 32 38 43 46
84 89 84 67 63 61 68 74 68 56 48 54 50 60 78 74 70 70 63 61 48 46 52 50 51 55 61 71 72 68 53 51 53 55 59 61 53 51 46 46 42 42 36 33 36 40 45 48 51
80 88 83 79 73 75 66 61 70 67 62 60 50 57 70 67 69 71 72 69 54 43 47 46 47 51 54 66 66 67 58 49 48 49 50 49 48 48 48 55 52 52 49 46 44 46 50 53 52
82 92 88 86 78 72 74 70 62 71 74 58 48 62 71 67 65 63 66 68 59 48 48 51 48 49 47 59 66 74 82 79 59 51 44 47 44 48 49 52 52 53 54 55 53 53 54 55 54
85 89 88 89 75 82 68 65 59 65 65 48 48 59 69 72 65 63 60 61 58 55 57 58 47 44 47 53 66 73 77 71 66 46 41 42 45 46 47 47 52 51 56 56 57 58 60 56 52
88 75 79 88 80 76 75 76 76 71 53 44 43 52 61 70 69 76 60 64 62 62 58 63 55 43 47 56 62 66 67 68 52 46 40 52 49 50 62 67 54 55 57 56 58 59 57 54 48
79 78 77 85 86 86 84 76 73 72 53 53 49 46 54 68 67 70 62 61 59 64 61 59 60 57 52 56 61 66 60 58 50 61 53 51 50 60 65 59 53 55 62 59 61 56 54 52 51
75 73 79 81 80 85 80 75 74 77 75 63 50 48 50 69 74 72 65 57 57 60 63 61 62 62 76 67 59 60 60 55 55 63 59 63 67 60 57 54 55 52 55 57 59 55 53 53 49
74 79 85 84 89 86 81 83 77 80 81 72 57 49 54 67 76 73 67 59 54 53 53 55 54 56 60 65 59 61 58 59 72 67 58 52 60 60 47 46 51 49 53 61 60 60 58 54 49
79 85 96 90 85 84 80 87 82 80 74 74 64 47 55 60 71 74 67 62 57 54 52 51 50 48 52 56 58 60 60 54 58 64 60 64 58 50 52 51 59 60 60 59 60 59 60 55 55
79 94 91 92 85 79 79 85 82 76 76 70 71 52 60 59 62 69 66 66 59 54 53 49 49 46 45 50 56 56 55 53 52 52 58 58 58 57 49 51 52 53 53 60 61 59 61 56 58
70 87 83 92 93 85 82 85 81 78 78 73 72 63 54 53 59 64 62 65 62 56 56 48 46 41 45 47 57 61 51 51 49 47 46 59 61 54 50 49 54 57 58 60 62 64 64 59 56
64 73 78 95 96 89 85 87 80 78 76 75 75 65 50 49 56 59 63 64 70 62 63 50 47 45 46 47 47 46 50 53 53 52 50 50 57 51 44 46 56 62 60 61 61 60 61 56 55
57 70 86 91 92 89 93 89 81 79 78 79 78 74 64 53 53 56 62 64 63 65 61 59 54 50 47 50 60 52 52 52 52 53 54 56 49 47 50 48 50 56 55 60 60 61 61 61 58
62 69 75 78 80 84 89 92 86 80 80 79 81 66 56 52 58 56 58 66 70 66 65 63 60 62 56 49 48 50 51 60 59 55 51 51 51 52 41 44 53 50 49 58 60 62 62 63 60
62 72 69 76 76 79 80 90 90 84 81 83 83 74 66 57 66 63 58 63 65 65 66 67 66 65 59 55 49 48 52 51 53 54 51 44 46 60 42 43 46 46 46 52 57 58 62 62 61
59 58 71 69 75 76 77 78 82 85 82 77 81 77 76 70 64 59 54 56 62 65 65 70 71 68 60 56 52 52 54 56 52 52 50 47 44 57 58 46 46 48 44 50 62 60 60 58 51
62 61 75 72 78 81 75 75 82 80 70 75 79 81 78 74 77 72 68 63 59 64 67 69 73 68 59 60 59 53 55 54 54 48 45 43 47 43 47 48 49 42 42 42 46 54 64 69 59
54 64 78 79 80 74 77 81 71 71 73 75 74 80 82 81 79 80 83 82 68 60 64 64 66 72 65 63 62 60 58 56 53 53 56 44 44 44 40 40 35 36 42 43 43 44 49 57 59
53 61 67 76 73 66 75 78 70 65 62 70 70 74 81 80 80 80 80 80 68 62 63 63 63 69 73 65 62 60 56 56 58 55 50 44 42 39 38 36 38 37 38 47 43 38 43 44 46
42 49 48 59 57 52 65 80 75 66 66 62 61 63 69 70 75 79 76 75 78 67 76 67 57 64 67 68 62 60 57 58 61 63 62 54 47 46 41 38 39 37 35 34 35 31 33 39 38
36 43 39 42 49 51 57 76 83 68 62 59 59 57 59 63 67 72 73 76 77 76 83 74 65 56 57 60 66 63 57 64 70 70 61 54 55 53 47 43 40 41 36 39 39 32 31 34 35
33 36 34 33 37 41 54 63 64 57 57 50 48 52 57 57 60 63 66 70 73 80 80 82 78 59 53 55 56 69 66 67 67 69 68 64 59 55 63 61 51 42 40 42 42 38 38 40 39
35 38 33 35 32 38 39 55 57 55 52 53 53 53 61 61 55 58 63 67 68 76 76 82 83 70 58 45 53 56 69 74 75 74 75 74 74 65 55 51 52 48 49 48 40 44 44 45 50